Home > Weather > Alajuela > Past weeks

Flag for Costa Rica Past Weather in Alajuela, Costa Rica — Yesterday and Last 2 Weeks

Now
73 °F

Sunny.


Feels Like: 76 °F
Forecast: 65 / 82 °F
Wind: 9 mph from Southeast

Location: Juan Santamaria

Current Time: Jul 24, 2016 at 6:26:05 PM

Latest Report: Jul 24, 2016 at 6:00 PM


Visibility: 10 mi

Pressure: 30.00 "Hg (26.87 "Hg at 955m altitude)

Humidity: 65%

Dew Point: 61 °F

Location of AlajuelaLocation

Past Weather in Alajuela — Graph

°F

Alajuela Temperature Yesterday

Maximum temperature yesterday: 81 °F (at 11:00 AM)
Minimum temperature yesterday: 64 °F (at 4:00 AM)
Average temperature yesterday: 71 °F

High & Low Weather Summary for the Past Weeks

 TemperatureHumidityPressure
High84 °F (Jul 10, 12:00 PM)94% (Jul 10, 10:00 PM)30.12 "Hg (Jul 10, 10:00 PM)
Low64 °F (Jul 23, 4:00 AM)37% (Jul 15, 3:00 PM)29.97 "Hg (Jul 12, 3:00 AM)
Average73 °F72%30.03 "Hg
* Reported Jul 9 5:00 PM — Jul 24 5:00 PM, Alajuela, Weather by CustomWeather, © 2016

Note: Actual official high and low records may vary slightly from our data, if they occured in-between our weather recording intervals... More about our weather records

Advertising

Alajuela Weather History for the Previous 24 Hours

Scroll right to see more
 ConditionsComfort  
Time TempWeatherWind HumidityBarometerVisibility
5:00 PM
Sun, Jul 24
77 °FSunny.13 mph47%29.99 "Hg10 mi
4:00 PM77 °FSunny.10 mph47%29.99 "Hg10 mi
3:00 PM77 °FBroken clouds.14 mph51%30.00 "HgN/A
2:00 PM77 °FPartly sunny.10 mph54%30.01 "HgN/A
1:00 PM79 °FBroken clouds.12 mph51%30.01 "HgN/A
12:00 PM81 °FScattered clouds.12 mph51%30.03 "HgN/A
11:00 AM79 °FScattered clouds.12 mph51%30.05 "HgN/A
10:00 AM81 °FScattered clouds.14 mph51%30.05 "HgN/A
9:00 AM79 °FPassing clouds.12 mph58%30.05 "HgN/A
8:00 AM75 °FPassing clouds.12 mph65%30.04 "HgN/A
7:00 AM72 °FScattered clouds.12 mph73%30.05 "HgN/A
6:00 AM68 °FScattered clouds.6 mph78%30.04 "HgN/A
5:00 AM66 °FClear.8 mph83%30.02 "Hg10 mi
4:00 AM66 °FClear.9 mph83%30.00 "Hg10 mi
3:00 AM64 °FClear.3 mph88%30.01 "Hg10 mi
2:00 AM66 °FClear.6 mph88%30.00 "Hg10 mi
1:00 AM66 °FPassing clouds.2 mph94%30.02 "HgN/A
12:00 AM66 °FPartly cloudy.3 mph94%30.06 "HgN/A
11:00 PM
Sat, Jul 23
66 °FFog.No wind94%30.07 "Hg2 mi
10:00 PM66 °FFog.No wind94%30.06 "Hg1 mi
9:00 PM68 °FPartly cloudy.6 mph88%30.04 "HgN/A
8:00 PM68 °FLight rain. Mostly cloudy.6 mph88%30.04 "HgN/A
7:00 PM66 °FPartly cloudy.6 mph94%30.04 "HgN/A
6:00 PM66 °FLight rain. More clouds than sun.3 mph94%30.03 "Hg5 mi
Weather by CustomWeather, © 2016

See weather overviewHow to use our weather pages